Regional Weather Roundup
Issued by NWS Sioux Falls, SD

Home | Current Version | Previous Version | Graphics & Text | Print | Product List | Glossary On
Versions: 1 2 3 4 5 6 7 8 9 10 11 12 13 14 15 16 17 18 19 20 21 22 23 24 25 26 27 28 29 30 31 32 33 34 35 36 37 38 39 40 41 42 43 44 45 46 47 48 49 50
716
ASUS43 KFSD 230202
RWRFSD

WEATHER ROUNDUP FOR SE SOUTH DAKOTA/SW MINNESOTA/NW IOWA
NATIONAL WEATHER SERVICE SIOUX FALLS SD
900 PM CDT SAT JUL 22 2017

NOTE: "FAIR" INDICATES FEW OR NO CLOUDS BELOW 12,000 FEET WITH NO
SIGNIFICANT WEATHER AND OR OBSTRUCTIONS TO VISIBILITY.


SDZ038>040-050-052>070-230300-
SOUTHEAST SOUTH DAKOTA

CITY           SKY/WX    TMP DP  RH WIND       PRES   REMARKS
BROOKINGS      CLEAR     78  66  66 SW6       29.91S
CHAMBERLAIN    CLEAR     87  57  36 CALM      29.92S
HURON          CLEAR     80  61  52 W3        29.88F
MADISON        FAIR      77  68  73 NW3       29.92F
MITCHELL       CLEAR     84  62  47 CALM      29.90S
SIOUX FALLS    PTCLDY    77  68  73 NW3       29.90S
WINNER         FAIR      86  54  33 SW5       29.93S
YANKTON        CLEAR     81  70  69 CALM      29.91S
$$

MNZ071-072-080-081-089-090-097-098-230300-
SOUTHWEST MINNESOTA

CITY           SKY/WX    TMP DP  RH WIND       PRES   REMARKS
FAIRMONT       CLEAR     77  71  82 NW3       29.88R
JACKSON        CLEAR     77  68  73 CALM      29.91R
LUVERNE        CLEAR     73  64  73 W3        29.91S
MARSHALL       CLEAR     76  67  73 W7        29.88S
MONTEVIDEO     CLEAR     75  63  64 CALM      29.86S
PIPESTONE      CLEAR     81  61  50 CALM      29.92S
REDWOOD FALLS  CLEAR     79  67  66 N3        29.85S
WINDOM         CLEAR     77  66  69 W10       29.89R
WORTHINGTON    CLEAR     74  66  76 W8        29.91S
$$

IAZ001>003-012>014-020>022-031-032-NEZ013-014-SDZ071-230300-
NORTHWEST IOWA

CITY           SKY/WX    TMP DP  RH WIND       PRES   REMARKS
CHEROKEE       PTCLDY    77  69  77 CALM      29.90R
DENISON        CLOUDY    77  75  94 CALM      29.92S
ESTHERVILLE    CLEAR     74  71  91 NW5       29.88R
ORANGE CITY    CLEAR     77  72  83 CALM      29.91S
SHELDON        CLEAR     72  70  94 W5        29.89R
SIOUX CITY     CLEAR     76  75  97 W5        29.90R
SPENCER        CLEAR     74  70  87 NW5       29.90R
STORM LAKE     PTCLDY    75  72  88 W5        29.92R
$$

ABBREVIATIONS USED IN REMARKS
   TC - TEMPERATURE IN CELSIUS
  WCI - WIND CHILL INDEX
   HX - HEAT INDEX
  VSB - VISIBILITY





USA.gov is the U.S. government's official web portal to all federal, state and local government web resources and services.